Location: Sunny Point
(33.0946°N, 85.0574°W)
Time: 00:45:38
(UTC+00:00)

X-37B - Pass Details

Date: 26 November 2022
Orbit: 277 x 277 km, 45.0° (Epoch: 01 November)

Event Time Altitude Azimuth Distance (km) Brightness Sun altitude
Exits shadow 10:26:42 15° 95° (E) 859 3.3 -23.6°
Drops below altitude 10° 10:27:19 10° 101° (ESE) 1,094 4.0 -23.5°
Sets 10:29:17 0° 110° (ESE) 1,903 5.5 -23.1°
